Date String (YYYY-MM-DD hh:mm:ss) UTC,Instrument flags,Ambient pressure (hPa),Sample flow (lpm),Bypass flow (lpm),Sample temperature (°C),Ambient temperature (°C),ASC tube jacket temperature (°C),LED temperature (°C),Box temperature (°C),Sample RH (%),Span deviation,Mass concentration (μg/m³),Mass concentration (μg/m³),Mass concentration (μg/m³)
DateTimeUTC,F1_M11,P_M11,Q1_M11,Q2_M11,T1_M11,T2_M11,T3_M11,T4_M11,T5_M11,U1_M11,ZSPAN_M11,X0_M11,X2_M11,X1_M11
2022-09-02 17:00:00,,0830.1,5.00,0.00,29.7,27.8,00.0,38.3,31.4,16.7,0000.0,0011.23,0005.56,0004.77
2022-09-02 17:01:00,,0830.1,5.00,0.00,29.7,28.1,00.0,38.3,31.5,16.5,0000.0,0011.55,0005.59,0004.84
2022-09-02 17:02:00,,0830.1,4.98,0.00,29.7,28.3,00.0,38.4,31.6,16.6,0000.0,0011.77,0005.61,0004.89
2022-09-02 17:03:00,,0830.1,5.01,0.00,29.7,28.5,00.0,38.4,31.6,16.7,0000.0,0011.91,0005.67,0004.94
2022-09-02 17:04:00,,0830.1,5.01,0.00,29.8,28.1,00.0,38.4,31.7,16.8,0000.0,0012.05,0005.72,0005.00
2022-09-02 17:05:00,,0830.1,5.01,0.00,29.7,27.0,00.0,38.4,31.5,17.2,0000.0,0012.83,0005.71,0005.03
2022-09-02 17:06:00,,0830.1,5.00,0.00,29.7,26.8,00.0,38.4,31.5,17.2,0000.0,0013.26,0005.71,0005.04
2022-09-02 17:07:00,,0830.1,4.99,0.00,29.7,27.1,00.0,38.3,31.5,17.4,0000.0,0012.82,0005.80,0005.08
2022-09-02 17:08:00,,0830.1,5.01,0.00,29.7,27.4,00.0,38.3,31.4,17.5,0000.0,0012.72,0005.88,0005.12
2022-09-02 17:09:00,,0830.1,5.00,0.00,29.7,27.7,00.0,38.3,31.4,17.5,0000.0,0013.04,0006.00,0005.16
2022-09-02 17:10:00,,0830.1,5.00,0.00,29.7,28.0,00.0,38.3,31.5,17.5,0000.0,0013.07,0006.06,0005.22
2022-09-02 17:11:00,,0830.1,5.01,0.00,29.7,28.2,00.0,38.3,31.5,17.6,0000.0,0012.86,0006.09,0005.24
2022-09-02 17:12:00,,0830.1,4.98,0.00,29.7,28.4,00.0,38.4,31.6,17.2,0000.0,0013.32,0006.13,0005.26
2022-09-02 17:13:00,,0830.1,5.01,0.00,29.8,28.5,00.0,38.4,31.7,17.2,0000.0,0013.64,0006.18,0005.31
2022-09-02 17:14:00,,0830.2,4.99,0.00,29.8,27.7,00.0,38.4,31.7,17.4,0000.0,0013.75,0006.25,0005.33
2022-09-02 17:15:00,,0830.1,5.01,0.00,29.7,26.8,00.0,38.4,31.5,17.7,0000.0,0013.74,0006.30,0005.36
2022-09-02 17:16:00,,0830.1,5.00,0.00,29.7,27.0,00.0,38.3,31.6,17.7,0000.0,0013.26,0006.36,0005.40
2022-09-02 17:17:00,,0830.0,4.99,0.00,29.7,27.3,00.0,38.3,31.4,17.6,0000.0,0012.78,0006.41,0005.43
2022-09-02 17:18:00,,0830.1,5.01,0.00,29.6,27.5,00.0,38.3,31.4,17.6,0000.0,0012.83,0006.45,0005.47
2022-09-02 17:19:00,,0830.1,5.00,0.00,29.7,27.8,00.0,38.3,31.4,17.9,0000.0,0013.43,0006.52,0005.51
2022-09-02 17:20:00,,0830.1,5.01,0.00,29.7,28.1,00.0,38.3,31.5,18.3,0000.0,0013.27,0006.49,0005.53
2022-09-02 17:21:00,,0830.1,5.01,0.00,29.7,28.3,00.0,38.3,31.6,18.2,0000.0,0013.47,0006.47,0005.56
2022-09-02 17:22:00,,0830.0,4.98,0.00,29.7,28.1,00.0,38.4,31.6,17.9,0000.0,0013.88,0006.58,0005.62
2022-09-02 17:23:00,,0830.1,5.01,0.00,29.7,27.1,00.0,38.3,31.5,17.8,0000.0,0013.79,0006.63,0005.66
2022-09-02 17:24:00,,0830.1,5.00,0.00,29.7,26.7,00.0,38.3,31.4,17.9,0000.0,0013.48,0006.66,0005.67
2022-09-02 17:25:00,,0830.1,5.01,0.00,29.6,27.1,00.0,38.3,31.4,17.8,0000.0,0013.61,0006.65,0005.70
2022-09-02 17:26:00,,0830.1,4.99,0.00,29.6,27.3,00.0,38.3,31.3,18.0,0000.0,0013.86,0006.64,0005.72
2022-09-02 17:27:00,,0830.1,5.00,0.00,29.6,27.6,00.0,38.3,31.4,18.0,0000.0,0014.27,0006.63,0005.75
2022-09-02 17:28:00,,0830.1,5.00,0.00,29.6,27.9,00.0,38.3,31.4,17.6,0000.0,0014.57,0006.65,0005.79
2022-09-02 17:29:00,,0830.1,5.01,0.00,29.6,28.1,00.0,38.3,31.5,17.6,0000.0,0014.65,0006.67,0005.83
2022-09-02 17:30:00,,0830.1,4.99,0.00,29.7,28.3,00.0,38.3,31.6,18.3,0000.0,0014.09,0006.65,0005.87
2022-09-02 17:31:00,,0830.1,5.00,0.00,29.7,28.2,00.0,38.3,31.6,18.3,0000.0,0014.58,0006.68,0005.90
2022-09-02 17:32:00,,0830.0,5.01,0.00,29.7,27.1,00.0,38.3,31.4,17.8,0000.0,0015.14,0006.73,0005.95
2022-09-02 17:33:00,,0830.1,5.00,0.00,29.6,26.7,00.0,38.3,31.4,17.9,0000.0,0014.91,0006.72,0006.00
2022-09-02 17:34:00,,0830.0,4.99,0.00,29.6,27.0,00.0,38.3,31.4,18.3,0000.0,0014.92,0006.81,0006.04
2022-09-02 17:35:00,,0830.0,5.01,0.00,29.6,27.3,00.0,38.2,31.3,18.7,0000.0,0014.64,0006.85,0006.08
2022-09-02 17:36:00,,0830.0,4.99,0.00,29.6,27.6,00.0,38.2,31.3,18.4,0000.0,0015.12,0006.88,0006.11
2022-09-02 17:37:00,,0830.1,5.00,0.00,29.6,27.8,00.0,38.2,31.4,18.8,0000.0,0015.14,0006.91,0006.13
2022-09-02 17:38:00,,0830.0,5.01,0.00,29.6,28.1,00.0,38.3,31.5,18.8,0000.0,0014.58,0007.01,0006.18
2022-09-02 17:39:00,,0830.0,4.99,0.00,29.6,28.3,00.0,38.3,31.6,18.5,0000.0,0014.49,0007.07,0006.22
2022-09-02 17:40:00,,0829.9,5.00,0.00,29.7,28.2,00.0,38.3,31.6,18.5,0000.0,0014.50,0007.13,0006.24
2022-09-02 17:41:00,,0830.0,5.01,0.00,29.7,27.1,00.0,38.3,31.5,18.5,0000.0,0014.78,0007.25,0006.28
2022-09-02 17:42:00,,0829.9,5.00,0.00,29.6,26.7,00.0,38.2,31.4,18.5,0000.0,0014.58,0007.36,0006.34
2022-09-02 17:43:00,,0830.0,4.99,0.00,29.6,27.0,00.0,38.2,31.4,18.3,0000.0,0014.05,0007.46,0006.38
2022-09-02 17:44:00,,0830.0,5.01,0.00,29.6,27.2,00.0,38.2,31.3,18.5,0000.0,0015.09,0007.57,0006.41
2022-09-02 17:45:00,,0829.9,5.00,0.00,29.5,27.5,00.0,38.2,31.3,18.6,0000.0,0015.51,0007.59,0006.43
2022-09-02 17:46:00,,0829.9,5.01,0.00,29.6,27.8,00.0,38.2,31.4,18.8,0000.0,0015.96,0007.63,0006.47
2022-09-02 17:47:00,,0829.9,5.00,0.00,29.6,28.0,00.0,38.2,31.4,18.9,0000.0,0016.11,0007.67,0006.50
2022-09-02 17:48:00,,0830.0,5.01,0.00,29.6,28.3,00.0,38.2,31.5,19.3,0000.0,0017.22,0007.76,0006.54
2022-09-02 17:49:00,,0830.0,4.99,0.00,29.7,28.3,00.0,38.3,31.6,18.7,0000.0,0017.37,0007.78,0006.56
2022-09-02 17:50:00,,0829.9,5.00,0.00,29.7,27.3,00.0,38.3,31.4,18.7,0000.0,0017.72,0007.83,0006.59
2022-09-02 17:51:00,,0830.0,5.00,0.00,29.6,26.7,00.0,38.2,31.4,18.9,0000.0,0017.76,0007.85,0006.60
2022-09-02 17:52:00,,0830.0,4.99,0.00,29.6,27.0,00.0,38.2,31.4,18.9,0000.0,0018.54,0007.84,0006.62
2022-09-02 17:53:00,,0830.0,5.01,0.00,29.5,27.3,00.0,38.2,31.3,19.0,0000.0,0019.33,0007.85,0006.63
2022-09-02 17:54:00,,0830.1,5.00,0.00,29.5,27.5,00.0,38.2,31.3,19.4,0000.0,0019.60,0007.90,0006.63
2022-09-02 17:55:00,,0830.1,5.00,0.00,29.5,27.8,00.0,38.2,31.4,19.1,0000.0,0018.72,0007.87,0006.63
2022-09-02 17:56:00,,0830.1,5.01,0.00,29.6,28.0,00.0,38.2,31.4,19.5,0000.0,0018.26,0007.88,0006.62
2022-09-02 17:57:00,,0830.1,4.99,0.00,29.6,28.3,00.0,38.2,31.5,19.3,0000.0,0018.67,0007.88,0006.62
2022-09-02 17:58:00,,0830.1,5.00,0.00,29.7,28.3,00.0,38.3,31.6,19.3,0000.0,0018.12,0007.89,0006.64
2022-09-02 17:59:00,,0830.1,4.99,0.00,29.7,27.4,00.0,38.3,31.5,19.7,0000.0,0017.31,0007.92,0006.65
